Hourly Data Report for November 17, 2019

OTTAWA INTL A
ONTARIO
Current Station Operator: NAVCAN

45°19'00.000" N
75°40'00.000" W
114.90 m
6106001
71628
YOW

Download Data

Hourly Data (November 2019)
Hourly Data Report for November 17, 2019
TIME Temp Definition
°C
Dew Point Definition
°C
Rel Hum Definition
%
Wind Dir Definition
10's deg

Wind Spd Definition
km/h
Visibility Definition
km
Stn Press Definition
kPa
Hmdx Definition


Wind Chill Definition


Weather Definition


00:00 -13.0 -16.0 79 6 12 24.1 101.97   -20 LegendNANA
01:00 -13.9 -17.2 76 5 13 24.1 101.92   -21 Clear
02:00 -13.7 -16.6 79 6 13 24.1 101.86   -21 LegendNANA
03:00 -13.2 -16.1 79 6 16 24.1 101.82   -21 LegendNANA
04:00 -13.3 -15.5 83 5 15 24.1 101.78   -21 Mostly Cloudy
05:00 -13.8 -16.4 81 7 15 24.1 101.74   -21 LegendNANA
06:00 -13.9 -16.9 78 5 16 24.1 101.71   -22 LegendNANA
07:00 -13.3 -16.4 78 5 17 24.1 101.68   -21 Mostly Cloudy
08:00 -12.4 -15.8 76 7 14 24.1 101.64   -19 LegendNANA
09:00 -11.4 -14.9 76 7 8 24.1 101.64   -16 LegendNANA
10:00 -9.2 -13.4 71 7 13 24.1 101.61   -15 Mainly Clear
11:00 -7.2 -12.7 65 7 10 24.1 101.53   -12 LegendNANA
12:00 -5.7 -13.0 57 10 15 24.1 101.39   -11 LegendNANA
13:00 -4.4 -13.0 51 8 16 24.1 101.25   -10 Mainly Clear
14:00 -3.6 -13.0 48 10 14 24.1 101.16   -9 LegendNANA
15:00 -3.5 -12.4 51 8 11 24.1 101.11   -8 LegendNANA
16:00 -3.7 -12.9 49 8 14 24.1 101.04   -9 Mostly Cloudy
17:00 -5.4 -12.3 59 6 9 24.1 101.00   -9 LegendNANA
18:00 -6.1 -12.7 60 8 13 24.1 100.95   -11 LegendNANA
19:00 -6.6 -12.2 65 8 18 24.1 100.87   -13 Mainly Clear
20:00 -7.1 -11.7 70 8 16 24.1 100.85   -13 LegendNANA
21:00 -8.3 -12.3 73 6 15 24.1 100.77   -15 LegendNANA
22:00 -8.8 -12.8 73 5 17 24.1 100.67   -16 Mainly Clear
23:00 -8.9 -12.5 75 5 17 24.1 100.61   -16 LegendNANA

Notes on Data Quality.

Legend

  • E = Estimated
  • M = Missing
  • NA = Not Available*
  • [empty] = Indicates an unobserved value
Date modified: